STARLINK-3860, 52477

Orbit data source: Space-Track

STARLINK-3860, 52477 is a payload satellite owned by SpaceX/Seattle (US) in LEO that was launched on Fri, 06 May 2022 UTC via an FALCON 9 launch vehicle from the Air Force Eastern Test Range (AFETR). Payload-class satellites include a variety of spacecraft equipped with specific instruments for various scientific and technological missions. These include communications satellites like Starlink; space stations such as the ISS; scientific satellites like the Hubble; Earth observation satellites from companies like Planet Labs, Umbra, and HawkEye 360; GPS; miniature CubeSats for education and research; and military/defense satellites.

Loading next visibility...
Identifier
52477, 2022-049AC
Orbit
LEO
Country
Flag of USUS
Related business
Manufacturer
SpaceX/Seattle
Mission
Operational Commercial Communications
Bus & Motor
STARLINK, Unknown motor
Mass
297 kg wet, ~220 kg dry
Launch date (UTC)
2022-05-06 (4 years ago)
Launch vehicle
FALCON 9
Launch site
Air Force Eastern Test Range (AFETR)
Object type
Payload
Rocket body
Debris
Shape & HBR
Box + 1 Pan, 10.1 m
Radar Cross Section
13.562 m², Large (>1 m²)

Expand to show TLE details & history
Last TLE update: 20 hours ago

TLE from 20 hours ago
0 STARLINK-3860
1 52477U 22049AC  25346.55656568 -.00000984  00000-0 -43745-4 0  9998
2 52477  53.2174  80.2739 0001136  93.6172 266.4950 15.08822795200479
Epoch: 2025-12-12T13:21Z
TLE epoch observation values (Epoch: 2025-12-12T13:21:27.274Z)
Latitude
-0.00004°
Longitude
158.41374°
Altitude
540.742 km
Speed
7.593 km/s
True Right ascension
05h 21m 05s
True Declination
0° 00' 00"
Sunlit
Object was in full shadow at epoch
Visualization orbit readout
Latitude
Unknown
Longitude
Unknown
Altitude
Unknown
Speed
Unknown
Apparent Right ascension
Unknown
Apparent Declination
Unknown
Sunlit
N/A
Visualization observer readout
Local Sidereal Time
07:30:36
Azimuth
Unknown
Elevation
Unknown
Doppler factor
Unknown
Orbital elements
Apogee altitude
540.827 km
Perigee altitude
539.255 km
Semi-major axis
6,918.178 km
Eccentricity
0.00011
Inclination
53.2174°
RAAN
80.2739°
Arg. of periapsis
93.6172°
True anomaly
266.48201°
Mean anomaly
266.495°
Eccentric anomaly
266.4885°
Mean motion
3.77186 °/min
Orbital period
95.44 mins
BSTAR
-0.000043745
Loading maneuver chart data...
Computing Atmospheric mass density...
Loading historical data...
Loading historical data...
Loading historical data...
Loading historical data...
Loading historical data...
Loading historical data...
Loading historical data...

Documentation

Showing up to 5 results
|